Regional Weather Roundup
Issued by NWS

Home | Current Version | Previous Version | Text Only | Print | Product List | Glossary Off
Versions: 1 2 3 4 5 6 7 8 9 10 11 12 13 14 15 16 17 18 19 20 21 22 23 24 25 26 27 28 29 30 31 32 33 34 35 36 37 38 39 40 41 42 43 44 45 46 47 48 49 50

000
ASUS45 KSLC 232210
RWRUT

UTAH REGIONAL WEATHER ROUNDUP
NATIONAL WEATHER SERVICE SALT LAKE CITY UT
300 PM MST MON JAN 23 2017

UTZ001>011-023>025-232300-

NORTHERN UTAH

CITY           SKY/WX    TMP DP  RH WIND       PRES   REMARKS
BRIGHAM CITY     N/A     33  31  92 S16       29.44R VSB 1/2 WCI  22
HILL AFB       LGT SNOW  31  30  96 SW17      29.48R VSB 3/4 WCI  20
LOGAN          CLOUDY    34  33  96 S7        29.39S WCI  28
OGDEN          SNOW      31  31 100 SW16G25   29.47R VSB 1/2 WCI  20
SALT LAKE CITY LGT SNOW  34  32  92 NW5       29.50R FOG     WCI  30
TOOELE VALLEY  DRIZZLE   36  32  87 S12       29.51R WCI  27
WENDOVER       CLOUDY    37  23  56 NW5       29.52R WCI  34
HEBER CITY     LGT SNOW  34  27  75 SW16G22   29.43S WCI  23
WEST JORDAN    CLOUDY    33  33 100 CALM      29.50R

$$

UTZ011>015-024>027-232300-

CENTRAL/NORTHEAST UTAH

CITY           SKY/WX    TMP DP  RH WIND       PRES   REMARKS
PROVO AIRPORT  FLURRIES  34  31  88 S13       29.53R WCI  25
MOAB/CANYONLAN CLOUDY    43  43 100 SW12      29.53F
DELTA          CLOUDY    34  30  86 SW14      29.55R WCI  24
PRICE          PTSUNNY   33  30  88 E10       29.47R WCI  25
RICHFIELD      PTSUNNY   36  28  75 S24       29.58R WCI  24
ROOSEVELT      CLOUDY    32  28  86 CALM      29.49F
VERNAL         CLOUDY    32  30  92 SE7       29.48S WCI  26

$$

UTZ013>016-019>022-027-232300-

SOUTHERN UTAH

CITY           SKY/WX    TMP DP  RH WIND       PRES   REMARKS
BRYCE CANYON   MOSUNNY   25  15  66 W25G33    29.59S WCI   9
CEDAR CITY     FLURRIES  34  24  67 SW14      29.61R WCI  25
MILFORD        CLOUDY    40  27  59 SW28G39   29.57S WCI  29
ST GEORGE      CLOUDY    48  30  49 W13       29.67S
HANKSVILLE     MOSUNNY   46  25  42 MISG      29.57S
KANAB          CLOUDY    39  30  70 SW16      29.69F WCI  30
BLANDING       CLOUDY    34  32  92 W16G24    29.71R WCI  24

$$

REGIONAL REPORTS     COLORADO/ARIZONA

CITY           SKY/WX    TMP DP  RH WIND       PRES   REMARKS
CRAIG, CO      CLOUDY    40  24  53 SW16G26   29.48F WCI  31
GRAND JUNCTION CLOUDY    47  29  49 SW17G24   29.52R
RIFLE, CO      LGT RAIN  41  31  67 W14       29.52F
MONTROSE, CO   CLOUDY    46  25  43 SW29G45   29.58F
CORTEZ, CO     CLOUDY    40  33  76 SW13      29.67F WCI  32
COLORADO CITY  MOCLDY    37  32  81 SW15G24   29.70S WCI  28
PAGE, AZ       CLOUDY    41  31  67 SW8       29.65F
GRAND CANYON   SNOW      30  29  96 SW14G21   29.69R VSB 1/2 WCI  19
KINGMAN, AZ    CLOUDY    46  31  55 SW18G24   29.72F
FLAGSTAFF, AZ  LGT SNOW  30  27  88 SW24G43   29.68F FOG     WCI  16

$$

REGIONAL REPORTS    NEVADA/IDAHO/WYOMING

CITY           SKY/WX    TMP DP  RH WIND       PRES   REMARKS
LAS VEGAS, NV  CLOUDY    51  30  44 SW17G28   29.66S
ELY, NY        CLOUDY    29  14  53 W5        29.60R WCI  24
ELKO, NV       CLOUDY    31  24  75 W17       29.60R WCI  19
POCATELLO, ID  LGT SNOW  33  30  88 N9        29.41S FOG     WCI  25
BURLEY, ID     SNOW      29  26  89 W20G26    29.49R VSB 1/2 WCI  16
FORT BRIDGER,  CLOUDY    22  22 100 CALM      29.45R FOG
EVANSTON, WY   CLOUDY    27  20  75 SW23      29.37S WCI  12
ROCK SPRINGS,  SNOW      31  28  89 CALM      29.44F VSB 1/2

$$



USA.gov is the U.S. government's official web portal to all federal, state and local government web resources and services.